Regional Weather Roundup
Issued by NWS

Home | Current Version | Previous Version | Graphics & Text | Print | Product List | Glossary On
Versions: 1 2 3 4 5 6 7 8 9 10 11 12 13 14 15 16 17 18 19 20 21 22 23 24 25 26 27 28 29 30 31 32 33 34 35 36 37 38 39 40 41 42 43 44 45 46 47 48 49 50
000
ASUS45 KSLC 221010
RWRUT

UTAH REGIONAL WEATHER ROUNDUP
NATIONAL WEATHER SERVICE SALT LAKE CITY UT
400 AM MDT FRI MAY 22 2015

UTZ001>011-023>025-221100-

NORTHERN UTAH

CITY           SKY/WX    TMP DP  RH WIND       PRES   REMARKS
BRIGHAM CITY   MOCLDY    50  45  83 CALM      29.91R
HILL AFB       MOCLDY    50  42  74 E10       29.91S
LOGAN          CLOUDY    47  43  86 CALM      29.92R
OGDEN          MOCLDY    50  44  80 S3        29.89S
PROVO AIRPORT  PTCLDY    45  37  76 CALM      29.92S
SALT LAKE CITY MOCLDY    54  46  74 SW9       29.89S
VERNAL         RAIN      50  43  77 E8        29.96R
WENDOVER       MOCLDY    50  46  87 SE5       29.90S
HEBER CITY     MOCLDY    37  36  93 CALM      29.97S
WEST JORDAN    CLEAR     50  46  87 SW7       29.91S

$$

UTZ012>022-026-027-221100-

SOUTHERN/CENTRAL UTAH

CITY           SKY/WX    TMP DP  RH WIND       PRES   REMARKS
BLANDING       PTCLDY    46  38  74 N8        30.06S
BRYCE CANYON   PTCLDY    31  25  78 W9        30.03R WCI  23
CEDAR CITY     CLOUDY    45  32  60 NE3       29.93R
DELTA          CLOUDY    50  42  72 S5        29.91S
HANKSVILLE     MOCLDY    55  36  47 CALM      29.90R
MILFORD        MOCLDY    49  36  61 W8        29.91R
MOAB/CYNLANDS  MOCLDY    57  41  55 N6        29.89R
PRICE          CLOUDY    54  34  46 E6        29.93R
ST GEORGE      PTSUNNY   61  27  27 CALM      29.86R
KANAB          MOCLDY    43  32  65 NE6       29.97S

$$

REGIONAL REPORTS     COLORADO/ARIZONA

CITY           SKY/WX    TMP DP  RH WIND       PRES   REMARKS
CRAIG, CO      CLOUDY    45  39  79 S3        29.99R
GRAND JUNCTION LGT RAIN  49  45  86 E13       29.97S
RIFLE          LGT RAIN  48  42  80 E17       30.00R
MONTROSE       CLOUDY    48  43  82 CALM      30.04R
CORTEZ         CLEAR     46  40  79 CALM      30.01S
PAGE, AZ       NOT AVBL
GRAND CANYON   PTCLDY    28  26  92 CALM      30.02S
KINGMAN        MOCLDY    58  32  37 S8        29.88R
FLAGSTAFF      MOCLDY    31  26  82 CALM      30.03F

$$

REGIONAL REPORTS    NEVADA/IDAHO/WYOMING

CITY           SKY/WX    TMP DP  RH WIND       PRES   REMARKS
LAS VEGAS, NV  CLOUDY    64  39  39 S16       29.76R
ELY            CLOUDY    42  36  79 CALM      29.97S
ELKO           CLOUDY    50  42  74 W3        29.93S
POCATELLO, ID  CLOUDY    50  46  86 E7        29.92F
BURLEY         CLOUDY    52  46  80 CALM      29.89R
EVANSTON, WY   CLOUDY    40  37  89 E9        30.00R WCI  34
ROCK SPRINGS   CLOUDY    42  40  92 SW7       30.00S
KEMMERER       CLOUDY    39  37  93 N8        30.02S WCI  34

$$


USA.gov is the U.S. government's official web portal to all federal, state and local government web resources and services.